This is the latest recevied weather packets stored in our database for station/object W3BRL. If no packets are shown the sender has not sent any weather packets the latest 10 day(s).
| Time | Temp. | Humidity | Pressure | Rain* | Wind** | Luminosity | Snow |
|---|---|---|---|---|---|---|---|
| 1777824289 | 11.11° C | 34% | 1014.6 hPa | 0 mm | - | 800 W/m² | - |
| 1777823984 | 11.11° C | 35% | 1014.4 hPa | 0 mm | - | 772 W/m² | - |
| 1777823682 | 11.11° C | 34% | 1014.6 hPa | 0 mm | - | 765 W/m² | - |
| 1777823378 | 11.11° C | 34% | 1014.8 hPa | 0 mm | - | 759 W/m² | - |
| 1777823077 | 10.56° C | 35% | 1014.7 hPa | 0 mm | - | 754 W/m² | - |
| 1777822774 | 11.11° C | 34% | 1014.9 hPa | 0 mm | - | 750 W/m² | - |
| 1777822472 | 10.56° C | 34% | 1014.8 hPa | 0 mm | - | 743 W/m² | - |
| 1777822169 | 10° C | 36% | 1014.9 hPa | 0 mm | - | 736 W/m² | - |
| 1777821866 | 10.56° C | 36% | 1014.8 hPa | 0 mm | - | 730 W/m² | - |
| 1777821564 | 10.56° C | 35% | 1014.8 hPa | 0 mm | - | 721 W/m² | - |
| 1777821262 | 10.56° C | 36% | 1015 hPa | 0 mm | - | 716 W/m² | - |
| 1777820958 | 10° C | 39% | 1014.8 hPa | 0 mm | - | 707 W/m² | - |
| 1777820655 | 10° C | 37% | 1015 hPa | 0 mm | - | 698 W/m² | - |
| 1777820351 | 9.44° C | 39% | 1015.2 hPa | 0 mm | - | 694 W/m² | - |
| 1777820049 | 9.44° C | 40% | 1015.1 hPa | 0 mm | - | 682 W/m² | - |
| 1777819745 | 9.44° C | 42% | 1015.1 hPa | 0 mm | - | 673 W/m² | - |
| 1777819444 | 8.89° C | 42% | 1015 hPa | 0 mm | - | 659 W/m² | - |
| 1777819141 | 9.44° C | 43% | 1015.1 hPa | 0 mm | - | 651 W/m² | - |
| 1777818838 | 9.44° C | 42% | 1015.1 hPa | 0 mm | - | 638 W/m² | - |
| 1777818534 | 9.44° C | 46% | 1015.1 hPa | 0 mm | - | 624 W/m² | - |
| 1777818232 | 8.89° C | 48% | 1015 hPa | 0 mm | - | 609 W/m² | - |
| 1777817927 | 8.89° C | 49% | 1015.1 hPa | 0 mm | - | 598 W/m² | - |
| 1777817625 | 8.89° C | 51% | 1015.1 hPa | 0 mm | - | 577 W/m² | - |
| 1777817321 | 7.78° C | 52% | 1015.2 hPa | 0 mm | - | 572 W/m² | - |
| 1777817019 | 7.78° C | 52% | 1015.5 hPa | 0 mm | - | 555 W/m² | - |
* Rain latest hour (hover to see other rain measurements)
** Current wind speed in m/s (hover to see current wind gust speed)